| time (UTC) | temp F | wind direction | speed knots | gust knots | rain 1hr in | rain 24hr in | rain mn in | humidity % | barometer mb |
| 20260507050135 | 48 | 141 | 0.0 | 0.9 | 0.00 | 0.30 | 0.00 | 93 | |
| 20260507043045 | 47 | 175 | 0.9 | 3.5 | 0.00 | 0.30 | 0.00 | 93 | |
| 20260507040136 | 47 | 141 | 0.9 | 3.5 | 0.00 | 0.30 | 0.00 | 94 | |
| 20260507033046 | 47 | 152 | 0.9 | 5.2 | 0.00 | 0.30 | 0.00 | 93 | |
| 20260507030116 | 48 | 169 | 0.9 | 3.5 | 0.00 | 0.30 | 0.00 | 92 | |
| 20260507023046 | 49 | 154 | 0.9 | 5.2 | 0.00 | 0.30 | 0.00 | 92 | |
| 20260507020116 | 50 | 146 | 0.9 | 3.5 | 0.00 | 0.30 | 0.00 | 93 | |
| 20260507013046 | 50 | 181 | 0.9 | 3.5 | 0.00 | 0.30 | 0.00 | 92 | |
| 20260507010015 | 50 | 134 | 0.0 | 3.5 | 0.00 | 0.30 | 0.00 | 94 | |
| 20260507003047 | 50 | 154 | 0.0 | 2.6 | 0.00 | 0.30 | 0.00 | 94 | |
| 20260507000017 | 51 | 156 | 0.0 | 3.5 | 0.00 | 0.30 | 0.00 | 94 | |
| 20260506233049 | 51 | 158 | 0.9 | 2.6 | 0.00 | 0.30 | 0.00 | 94 | |
| 20260506230039 | 51 | 169 | 0.9 | 3.5 | 0.00 | 0.30 | 0.00 | 95 | |
| 20260506223109 | 52 | 166 | 0.0 | 2.6 | 0.00 | 0.30 | 0.00 | 96 | |
| 20260506220018 | 52 | 142 | 0.0 | 0.9 | 0.03 | 0.30 | 0.00 | 96 | |
| 20260506213049 | 52 | 156 | 0.9 | 3.5 | 0.03 | 0.30 | 0.30 | 97 | |
| 20260506210019 | 52 | 0.0 | 0.0 | 0.00 | 0.27 | 0.27 | 97 | ||
| 20260506203052 | 52 | 152 | 0.0 | 0.9 | 0.00 | 0.27 | 0.27 | 96 | |
| 20260506200020 | 52 | 132 | 0.0 | 0.9 | 0.00 | 0.27 | 0.27 | 95 | |
| 20260506193050 | 53 | 193 | 0.9 | 5.2 | 0.09 | 0.27 | 0.27 | 94 | |
| 20260506190020 | 54 | 223 | 1.7 | 7.0 | 0.27 | 0.27 | 0.27 | 95 | |
| 20260506183111 | 54 | 188 | 0.9 | 11.3 | 0.18 | 0.18 | 0.18 | 89 | |
| 20260506180021 | 60 | 244 | 2.6 | 6.1 | 0.00 | 0.00 | 0.00 | 73 | |
| 20260506173052 | 62 | 230 | 1.7 | 6.1 | 0.00 | 0.00 | 0.00 | 68 | |
| 20260506170021 | 63 | 177 | 0.9 | 5.2 | 0.00 | 0.00 | 0.00 | 68 | |
| 20260506163054 | 63 | 111 | 1.7 | 3.5 | 0.00 | 0.00 | 0.00 | 68 | |
| 20260506160023 | 65 | 287 | 2.6 | 7.0 | 0.00 | 0.00 | 0.00 | 62 | |
| 20260506153134 | 67 | 154 | 0.9 | 2.6 | 0.00 | 0.00 | 0.00 | 53 | |
| 20260506150024 | 67 | 146 | 0.9 | 2.6 | 0.00 | 0.00 | 0.00 | 53 | |
| 20260506143055 | 69 | 194 | 0.9 | 3.5 | 0.00 | 0.00 | 0.00 | 52 | |
| 20260506140025 | 68 | 140 | 0.9 | 5.2 | 0.00 | 0.00 | 0.00 | 52 | |
| 20260506133056 | 68 | 127 | 0.9 | 5.2 | 0.00 | 0.00 | 0.00 | 55 | |
| 20260506130046 | 66 | 109 | 0.9 | 2.6 | 0.00 | 0.00 | 0.00 | 58 | |
| 20260506123057 | 66 | 124 | 0.9 | 6.1 | 0.00 | 0.00 | 0.00 | 58 | |
| 20260506120026 | 65 | 105 | 0.9 | 3.5 | 0.00 | 0.00 | 0.00 | 61 | |
| 20260506113058 | 64 | 118 | 0.9 | 5.2 | 0.00 | 0.00 | 0.00 | 61 | |
| 20260506110028 | 64 | 120 | 0.9 | 5.2 | 0.00 | 0.00 | 0.00 | 62 | |
| 20260506103101 | 65 | 126 | 0.9 | 3.5 | 0.00 | 0.00 | 0.00 | 61 | |
| 20260506100029 | 65 | 132 | 0.9 | 3.5 | 0.00 | 0.00 | 0.00 | 63 | |
| 20260506093120 | 63 | 122 | 0.9 | 3.5 | 0.00 | 0.00 | 0.00 | 67 | |
| 20260506090029 | 63 | 117 | 0.9 | 2.6 | 0.00 | 0.00 | 0.00 | 70 | |
| 20260506083101 | 60 | 143 | 0.9 | 2.6 | 0.00 | 0.00 | 0.00 | 73 | |
| 20260506073104 | 59 | 116 | 0.9 | 3.5 | 0.00 | 0.00 | 0.00 | 79 |